Location: Te Maire Creek
(41.1333°S, 175.9167°E)
Time: 02:15:23
(UTC+00:00)

USA 307 - Pass Details

Date: 19 May 2024
Orbit: 495 x 502 km, 54.0° (Epoch: 10 March)

Event Time Altitude Azimuth Distance (km) Brightness Sun altitude
Exits shadow 18:00:03 15° 312° (NW) 1,366 4.5 -15.3°
Maximum altitude 18:03:07 89° 34° (NNE) 500 2.5 -14.8°
Drops below altitude 10° 18:07:05 10° 130° (SE) 1,725 5.8 -14.1°
Sets 18:09:19 0° 130° (SE) 2,611 6.8 -13.6°
